Siloam Springs, AR

3:48 PM CST on December 09, 2016 (GMT -0600)
Smith

Weather History for KSLG - October, 2013

Change the Weather History Date:

Sunday, October 6, 2013

  Actual Average Record
Temperature  
Mean Temperature 53 °F -  
Max Temperature 62 °F 70 °F 87 °F (2016)
Min Temperature 44 °F 49 °F 33 °F (2001)
Degree Days  
Heating Degree Days 12    
Growing Degree Days 3 (Base 50)    
Moisture  
Dew Point 39 °F    
Average Humidity 62    
Maximum Humidity 82    
Minimum Humidity 45    
Precipitation  
Precipitation 0.00 in - - ()
Sea Level Pressure  
Sea Level Pressure 30.02 in    
Wind  
Wind Speed 7 mph (West)    
Max Wind Speed 16 mph    
Max Gust Speed 20 mph    
Visibility 10 miles    
Events      
Averages and records for this station are not official NWS values.
T = Trace of Precipitation, MM = Missing Value Source: NWS Daily Summary

Daily Weather History Graph

Daily Weather History Graph

Search for Another Location

Airport or City:

Trip Planner

Search our weather history database for the weather conditions in past years. The results will help you decide how hot, cold, wet, or windy it might be!

Date:

Astronomy

Oct. 06, 2013 Rise Set
Actual Time 7:17 AM CDT 6:53 PM CDT
Civil Twilight 6:51 AM CDT 7:19 PM CDT
Nautical Twilight 6:21 AM CDT 7:49 PM CDT
Astronomical Twilight 5:52 AM CDT 8:19 PM CDT
Moon 8:58 AM CDT (10/6) 7:58 PM CDT (10/6)
Length of Visible Light 12h 27m
Length of Day
11h 36m
Waxing Crescent, 3% of the Moon is Illuminated
Oct 6
Waxing Crescent
Oct 11
First Quarter
Oct 18
Full
Oct 26
Last Quarter
Nov 3
New

Hourly Weather History & Observations

Time (CDT) Temp. Windchill Dew Point Humidity Pressure Visibility Wind Dir Wind Speed Gust Speed Precip Events Conditions
12:15 AM 46.4 °F 44.3 °F 41.0 °F 81% 30.05 in 10.0 mi WSW 4.6 mph - N/A   Clear
12:35 AM 46.4 °F 44.3 °F 41.0 °F 81% 30.04 in 10.0 mi SW 4.6 mph - N/A   Clear
12:55 AM 46.4 °F 45.2 °F 41.0 °F 81% 30.03 in 10.0 mi SW 3.5 mph - N/A   Clear
1:15 AM 48.2 °F - 42.8 °F 82% 30.02 in 10.0 mi SSW 3.5 mph - N/A   Clear
1:35 AM 46.4 °F 45.2 °F 41.0 °F 81% 30.02 in 10.0 mi SW 3.5 mph - N/A   Clear
1:55 AM 46.4 °F 45.2 °F 39.2 °F 76% 30.01 in 10.0 mi SW 3.5 mph - N/A   Clear
2:15 AM 46.4 °F 44.3 °F 41.0 °F 81% 30.01 in 10.0 mi SW 4.6 mph - N/A   Clear
2:35 AM 46.4 °F 43.5 °F 39.2 °F 76% 30.00 in 10.0 mi SW 5.8 mph - N/A   Clear
2:55 AM 46.4 °F 44.3 °F 39.2 °F 76% 30.00 in 10.0 mi WSW 4.6 mph - N/A   Clear
3:15 AM 46.4 °F 44.3 °F 39.2 °F 76% 30.00 in 10.0 mi WSW 4.6 mph - N/A   Clear
3:35 AM 46.4 °F 44.3 °F 39.2 °F 76% 29.99 in 10.0 mi WSW 4.6 mph - N/A   Clear
3:55 AM 46.4 °F 43.5 °F 39.2 °F 76% 29.99 in 10.0 mi West 5.8 mph - N/A   Clear
4:15 AM 46.4 °F 43.5 °F 39.2 °F 76% 30.00 in 10.0 mi West 5.8 mph - N/A   Clear
4:35 AM 44.6 °F 41.4 °F 39.2 °F 81% 30.00 in 10.0 mi West 5.8 mph - N/A   Clear
4:55 AM 44.6 °F 42.2 °F 37.4 °F 76% 30.00 in 10.0 mi West 4.6 mph - N/A   Clear
5:15 AM 44.6 °F - 37.4 °F 76% 30.00 in 10.0 mi Calm Calm - N/A   Clear
5:35 AM 44.6 °F 42.2 °F 37.4 °F 76% 29.99 in 10.0 mi WSW 4.6 mph - N/A   Clear
5:55 AM 44.6 °F 43.1 °F 37.4 °F 76% 30.00 in 10.0 mi SW 3.5 mph - N/A   Clear
6:15 AM 44.6 °F 42.2 °F 37.4 °F 76% 30.00 in 10.0 mi SW 4.6 mph - N/A   Clear
6:35 AM 44.6 °F 42.2 °F 37.4 °F 76% 30.01 in 10.0 mi West 4.6 mph - N/A   Clear
6:55 AM 44.6 °F 41.4 °F 37.4 °F 76% 30.01 in 10.0 mi West 5.8 mph - N/A   Clear
7:15 AM 44.6 °F 40.7 °F 37.4 °F 76% 30.02 in 10.0 mi WNW 6.9 mph - N/A   Clear
7:35 AM 44.6 °F 39.7 °F 35.6 °F 71% 30.01 in 10.0 mi WNW 9.2 mph - N/A   Clear
7:55 AM 44.6 °F 40.2 °F 35.6 °F 71% 30.02 in 10.0 mi NW 8.1 mph - N/A   Clear
8:15 AM 46.4 °F 44.3 °F 37.4 °F 71% 30.02 in 10.0 mi WNW 4.6 mph - N/A   Clear
8:35 AM 46.4 °F 43.5 °F 37.4 °F 71% 30.03 in 10.0 mi NW 5.8 mph - N/A   Clear
8:55 AM 48.2 °F - 37.4 °F 66% 30.03 in 10.0 mi WNW 6.9 mph - N/A   Clear
9:15 AM 50.0 °F - 37.4 °F 62% 30.03 in 10.0 mi WNW 6.9 mph - N/A   Clear
9:35 AM 51.8 °F - 37.4 °F 58% 30.03 in 10.0 mi WNW 12.7 mph - N/A   Clear
9:55 AM 51.8 °F - 37.4 °F 58% 30.04 in 10.0 mi NW 15.0 mph - N/A   Clear
10:15 AM 53.6 °F - 37.4 °F 54% 30.04 in 10.0 mi NW 16.1 mph - N/A   Clear
10:35 AM 53.6 °F - 37.4 °F 54% 30.04 in 10.0 mi NW 13.8 mph - N/A   Clear
10:55 AM 53.6 °F - 37.4 °F 54% 30.04 in 10.0 mi NNW 13.8 mph - N/A   Clear
11:15 AM 55.4 °F - 37.4 °F 51% 30.04 in 10.0 mi NNW 10.4 mph - N/A   Clear
11:35 AM 55.4 °F - 37.4 °F 51% 30.05 in 10.0 mi NW 15.0 mph - N/A   Clear
11:55 AM 55.4 °F - 37.4 °F 51% 30.05 in 10.0 mi WNW 10.4 mph - N/A   Clear
12:15 PM 57.2 °F - 39.2 °F 51% 30.05 in 10.0 mi North 9.2 mph - N/A   Clear
12:35 PM 57.2 °F - 39.2 °F 51% 30.04 in 10.0 mi NW 12.7 mph - N/A   Clear
12:55 PM 57.2 °F - 39.2 °F 51% 30.04 in 10.0 mi WNW 12.7 mph 17.3 mph N/A   Clear
1:15 PM 59.0 °F - 39.2 °F 48% 30.03 in 10.0 mi NW 13.8 mph - N/A   Clear
1:35 PM 60.8 °F - 39.2 °F 45% 30.02 in 10.0 mi West 12.7 mph - N/A   Clear
1:55 PM 60.8 °F - 39.2 °F 45% 30.02 in 10.0 mi West 11.5 mph 19.6 mph N/A   Clear
2:15 PM 60.8 °F - 41.0 °F 48% 30.02 in 10.0 mi WNW 11.5 mph 18.4 mph N/A   Scattered Clouds
2:35 PM 60.8 °F - 39.2 °F 45% 30.02 in 10.0 mi WNW 12.7 mph 17.3 mph N/A   Mostly Cloudy
2:55 PM 60.8 °F - 41.0 °F 48% 30.01 in 10.0 mi WNW 12.7 mph 18.4 mph N/A   Mostly Cloudy
3:15 PM 62.6 °F - 41.0 °F 45% 30.01 in 10.0 mi NW 11.5 mph - N/A   Mostly Cloudy
3:35 PM 60.8 °F - 41.0 °F 48% 30.01 in 10.0 mi WNW 13.8 mph 17.3 mph N/A   Mostly Cloudy
3:55 PM 62.6 °F - 41.0 °F 45% 30.01 in 10.0 mi NW 10.4 mph - N/A   Mostly Cloudy
4:15 PM 60.8 °F - 39.2 °F 45% 30.00 in 10.0 mi WNW 13.8 mph - N/A   Scattered Clouds
4:35 PM 60.8 °F - 39.2 °F 45% 30.00 in 10.0 mi WNW 13.8 mph 17.3 mph N/A   Partly Cloudy
4:55 PM 62.6 °F - 41.0 °F 45% 30.00 in 10.0 mi West 12.7 mph 18.4 mph N/A   Mostly Cloudy
5:15 PM 62.6 °F - 41.0 °F 45% 30.01 in 10.0 mi WNW 13.8 mph - N/A   Scattered Clouds
5:35 PM 60.8 °F - 41.0 °F 48% 30.02 in 10.0 mi West 11.5 mph 17.3 mph N/A   Partly Cloudy
5:55 PM 60.8 °F - 41.0 °F 48% 30.01 in 10.0 mi WNW 10.4 mph 16.1 mph N/A   Clear
6:15 PM 60.8 °F - 41.0 °F 48% 30.02 in 10.0 mi WNW 9.2 mph - N/A   Clear
6:35 PM 59.0 °F - 41.0 °F 51% 30.03 in 10.0 mi WNW 6.9 mph - N/A   Clear
6:55 PM 57.2 °F - 41.0 °F 55% 30.03 in 10.0 mi WNW 5.8 mph - N/A   Clear
7:15 PM 55.4 °F - 39.2 °F 54% 30.03 in 10.0 mi West 5.8 mph - N/A   Scattered Clouds
7:35 PM 55.4 °F - 41.0 °F 58% 30.03 in 10.0 mi West 4.6 mph - N/A   Overcast
7:55 PM 55.4 °F - 41.0 °F 58% 30.02 in 10.0 mi WSW 3.5 mph - N/A   Scattered Clouds
8:15 PM 53.6 °F - 39.2 °F 58% 30.03 in 10.0 mi SW 3.5 mph - N/A   Partly Cloudy
8:35 PM 53.6 °F - 41.0 °F 62% 30.04 in 10.0 mi WSW 4.6 mph - N/A   Mostly Cloudy
8:55 PM 53.6 °F - 39.2 °F 58% 30.04 in 10.0 mi SW 4.6 mph - N/A   Scattered Clouds
9:15 PM 51.8 °F - 39.2 °F 62% 30.04 in 10.0 mi SW 5.8 mph - N/A   Clear
9:35 PM 51.8 °F - 41.0 °F 67% 30.05 in 10.0 mi SW 5.8 mph - N/A   Mostly Cloudy
9:55 PM 51.8 °F - 39.2 °F 62% 30.05 in 10.0 mi WSW 5.8 mph - N/A   Scattered Clouds
10:15 PM 51.8 °F - 39.2 °F 62% 30.06 in 10.0 mi Calm Calm - N/A   Clear
10:35 PM 51.8 °F - 39.2 °F 62% 30.06 in 10.0 mi WSW 3.5 mph - N/A   Clear
10:55 PM 51.8 °F - 39.2 °F 62% 30.06 in 10.0 mi Calm Calm - N/A   Clear
11:15 PM 51.8 °F - 39.2 °F 62% 30.06 in 10.0 mi Calm Calm - N/A   Clear
11:35 PM 51.8 °F - 39.2 °F 62% 30.06 in 10.0 mi Calm Calm - N/A   Clear
11:55 PM 51.8 °F - 39.2 °F 62% 30.05 in 10.0 mi Calm Calm - N/A   Clear